Weather History for Sarasota, FL

Change the Weather History Date:

Tuesday, December 25, 2012

  Actual Average Record
Temperature  
Mean Temperature 65 °F 62 °F  
Max Temperature 75 °F 72 °F 84 °F (1998)
Min Temperature 54 °F 52 °F 22 °F (1983)
Degree Days  
Heating Degree Days 0 5  
Month to date heating degree days 38 90  
Since 1 July heating degree days 79 123  
Cooling Degree Days 0 2  
Month to date cooling degree days 90 64  
Year to date cooling degree days 3814 3364  
Growing Degree Days 15 (Base 50)    
Moisture  
Dew Point 56 °F    
Average Humidity 76    
Maximum Humidity 93    
Minimum Humidity 57    
Precipitation  
Precipitation 0.00 in 0.09 in 2.12 in (2004)
Month to date precipitation 1.32 2.09  
Year to date precipitation 45.36 52.57  
Sea Level Pressure  
Sea Level Pressure 29.95 in    
Wind  
Wind Speed 8 mph (SE)    
Max Wind Speed 17 mph    
Max Gust Speed 22 mph    
Visibility 10 miles    
Events      
T = Trace of Precipitation, MM = Missing Value Source: NWS Daily Summary

Daily Weather History Graph

Daily Weather History Graph

Search for Another Location

Airport:

Trip Planner

Search our weather history database for the weather conditions in past years. The results will help you decide how hot, cold, wet, or windy it might be!

Date:

Astronomy

Dec. 25, 2012 Rise Set
Actual Time 7:18 AM EST 5:43 PM EST
Civil Twilight 6:52 AM EST 6:08 PM EST
Nautical Twilight 6:23 AM EST 6:37 PM EST
Astronomical Twilight 5:54 AM EST 7:06 PM EST
Moon 3:47 PM EST 4:53 AM EST
Length of Visible Light 11h 16m
Length of Day
10h 25m
Waxing Gibbous, 93% of the Moon is Illuminated
Dec 25
Waxing Gibbous
Dec 28
Full
Jan 4
Last Quarter
Jan 11
New
Jan 18
First Quarter

Hourly Weather History & Observations

Time (EST) Temp. Dew Point Humidity Pressure Visibility Wind Dir Wind Speed Gust Speed Precip Events Conditions
12:53 AM 55.9 °F 53.1 °F 90% 30.01 in 10.0 mi SE 4.6 mph - N/A   Clear
1:53 AM 55.9 °F 53.1 °F 90% 30.01 in 10.0 mi SE 6.9 mph - N/A   Clear
2:53 AM 55.0 °F 53.1 °F 93% 30.00 in 10.0 mi SE 6.9 mph - N/A   Clear
3:53 AM 55.0 °F 53.1 °F 93% 29.98 in 10.0 mi ESE 3.5 mph - N/A   Clear
4:53 AM 55.0 °F 53.1 °F 93% 29.98 in 10.0 mi ESE 4.6 mph - N/A   Clear
5:53 AM 55.0 °F 52.0 °F 89% 29.98 in 10.0 mi ESE 4.6 mph - N/A   Clear
6:53 AM 55.0 °F 53.1 °F 93% 30.00 in 10.0 mi East 3.5 mph - N/A   Clear
7:53 AM 55.9 °F 54.0 °F 93% 30.01 in 10.0 mi ESE 3.5 mph - N/A   Clear
8:53 AM 63.0 °F 57.9 °F 84% 30.02 in 10.0 mi ESE 5.8 mph - N/A   Clear
9:53 AM 68.0 °F 57.9 °F 70% 30.02 in 10.0 mi SE 6.9 mph - N/A   Clear
10:53 AM 73.0 °F 59.0 °F 61% 30.01 in 10.0 mi SSE 10.4 mph - N/A   Clear
11:53 AM 75.0 °F 59.0 °F 57% 29.98 in 10.0 mi SSE 11.5 mph - N/A   Clear
12:53 PM 73.9 °F 59.0 °F 59% 29.95 in 10.0 mi South 12.7 mph - N/A   Clear
1:53 PM 73.9 °F 57.9 °F 57% 29.92 in 10.0 mi South 15.0 mph - N/A   Clear
2:53 PM 73.0 °F 57.0 °F 57% 29.91 in 10.0 mi South 9.2 mph - N/A   Clear
3:53 PM 72.0 °F 55.9 °F 57% 29.91 in 10.0 mi South 11.5 mph - N/A   Clear
4:53 PM 71.1 °F 55.0 °F 57% 29.91 in 10.0 mi South 8.1 mph - N/A   Clear
5:53 PM 68.0 °F 55.9 °F 65% 29.90 in 10.0 mi SE 8.1 mph - N/A   Clear
6:53 PM 68.0 °F 57.0 °F 68% 29.88 in 10.0 mi SE 10.4 mph - N/A   Clear
7:53 PM 68.0 °F 57.9 °F 70% 29.91 in 10.0 mi SSE 10.4 mph - N/A   Clear
8:53 PM 66.0 °F 57.9 °F 75% 29.92 in 10.0 mi SE 5.8 mph - N/A   Mostly Cloudy
9:53 PM 64.0 °F 57.9 °F 80% 29.90 in 10.0 mi SE 8.1 mph - N/A   Clear
10:53 PM 62.1 °F 57.9 °F 86% 29.90 in 10.0 mi SE 9.2 mph - N/A   Clear
11:53 PM 63.0 °F 59.0 °F 87% 29.89 in 10.0 mi SE 9.2 mph - N/A   Clear